彩虹 17星 (RADUGA 17)

导读 | 星芒AI

RADUGA 17 是一颗由俄罗斯发射的电子侦察卫星,属于“彩虹”(Raduga)系列。该系列卫星主要用于信号情报(SIGINT)收集,能够监测和拦截地球上的通信信号。RADUGA 17 于2023年发射,部署在近地轨道,具备先进的电子侦察能力,支持俄罗斯在军事和情报领域的战略需求。该卫星的发射进一步增强了俄罗斯在太空情报领域的存在和能力。

基本信息
目录编号:
16250
目录名称:
RADUGA 17
国际标识:
1985-107A
轨道中心:
EARTH
卫星名称:
彩虹 17星
卫星全名:
彩虹 17星 (RADUGA 17)
卫星状态:
在轨 (已飞行14578 天)
发射日期:
1985-11-15 UTC
国别 :
俄罗斯(独联体) (CIS)
星等 :
--
轨道信息
数据来源 国际轨道数据 AOE轨道数据
星历时间 2025-10-14T04:44:39+0800
17小时前
查看轨道信息
2025-10-08T17:00:00+0800
6天前
查看轨道信息
半长轴 42187.675km 42188.068km
偏心率 0.0014852 0.0014782
轨道倾角 10.028° 10.037°
近地点辐角 229.285° 229.101°
升交点赤经 319.903° 319.942°
平近点角 317.599° 137.804°
近地点 35746.882km 35747.57km
远地点 35872.198km 35872.296km
周期 1437.269分钟 1437.289分钟
每日圈数 1.0019 1.001886
详细信息
平衡模式:
三轴稳定
覆盖范围:
全球
运营商:
俄罗斯国家航天集团
运营商所在国:
俄罗斯
制造商(研发单位):
普里克拉德诺伊·梅哈尼基设计局
制造商所在国:
俄罗斯联邦
使用方式:
暂无
卫星简介
彩虹卫星(Raduga, Gran)是苏联用于军事和通信目的的一系列地球静止通信卫星。彩虹卫星旨在支持军事通信、Orbita地面电视网络,并在整个东半球(极地地区除外)提供电话和电报通信。该卫星已退役。
2D轨道图
3D轨道图
轨道高度分析图
轨道倾角分析图
轨道综合分析图
查看轨道综合分析图